This is the latest recevied weather packets stored in our database for station/object KJ5JYX. If no packets are shown the sender has not sent any weather packets the latest 10 day(s).
| Time | Temp. | Humidity | Pressure | Rain* | Wind** | Luminosity | Snow |
|---|---|---|---|---|---|---|---|
| 1777516653 | 16.67° C | 90% | 1014.9 hPa | 0 mm | - | 0 W/m² | - |
| 1777516349 | 16.67° C | 90% | 1015.4 hPa | 0 mm | - | 0 W/m² | - |
| 1777516045 | 16.67° C | 90% | 1015.2 hPa | 0 mm | - | 0 W/m² | - |
| 1777515742 | 16.67° C | 90% | 1015 hPa | 0 mm | - | 0 W/m² | - |
| 1777515439 | 16.67° C | 90% | 1013.9 hPa | 0 mm | - | 0 W/m² | - |
| 1777515135 | 16.67° C | 90% | 1014.5 hPa | 0 mm | - | 0 W/m² | - |
| 1777514832 | 16.67° C | 90% | 1014.5 hPa | 0 mm | - | 0 W/m² | - |
| 1777514529 | 16.67° C | 90% | 1014 hPa | 0 mm | - | 0 W/m² | - |
| 1777514226 | 16.67° C | 91% | 1014.2 hPa | 0 mm | - | 0 W/m² | - |
| 1777513922 | 16.67° C | 90% | 1014.5 hPa | 0 mm | - | 0 W/m² | - |
| 1777513619 | 16.67° C | 90% | 1014.3 hPa | 0 mm | - | 0 W/m² | - |
| 1777513316 | 16.67° C | 90% | 1014.6 hPa | 0 mm | - | 0 W/m² | - |
| 1777513012 | 16.67° C | 90% | 1014.8 hPa | 0 mm | - | 0 W/m² | - |
| 1777512103 | 16.67° C | 89% | 1014.4 hPa | 0 mm | - | 0 W/m² | - |
| 1777511801 | 17.22° C | 89% | 1014.3 hPa | 0 mm | - | 0 W/m² | - |
| 1777511497 | 17.78° C | 88% | 1014.1 hPa | 0 mm | - | 0 W/m² | - |
| 1777509372 | 17.78° C | 87% | 1014.6 hPa | 0 mm | - | 4 W/m² | - |
| 1777509069 | 17.78° C | 87% | 1014.3 hPa | 0 mm | - | 6 W/m² | - |
| 1777508464 | 17.78° C | 87% | 1014.1 hPa | 0 mm | - | 12 W/m² | - |
| 1777508161 | 17.78° C | 87% | 1013.8 hPa | 0 mm | - | 12 W/m² | - |
| 1777507857 | 18.33° C | 87% | 1013.7 hPa | 0 mm | - | 10 W/m² | - |
| 1777507555 | 18.33° C | 87% | 1013.9 hPa | 0 mm | - | 9 W/m² | - |
| 1777507251 | 18.89° C | 85% | 1014.4 hPa | 0 mm | - | 6 W/m² | - |
| 1777506949 | 18.89° C | 85% | 1014.1 hPa | 0 mm | - | 6 W/m² | - |
| 1777502397 | 19.44° C | 85% | 1013.2 hPa | 0 mm | - | 168 W/m² | - |
* Rain latest hour (hover to see other rain measurements)
** Current wind speed in m/s (hover to see current wind gust speed)